This is the latest recevied weather packets stored in our database for station/object KF4UQS-14. If no packets are shown the sender has not sent any weather packets the latest 10 day(s).
| Time | Temp. | Humidity | Pressure | Rain* | Wind** | Luminosity | Snow |
|---|---|---|---|---|---|---|---|
| 1778263679 | 17.78° C | 60% | 1016.7 hPa | 0 mm | - | 776 W/m² | - |
| 1778263376 | 17.78° C | 56% | 1016.8 hPa | 0 mm | - | 765 W/m² | - |
| 1778263072 | 17.78° C | 59% | 1016.7 hPa | 0 mm | - | 787 W/m² | - |
| 1778262768 | 18.33° C | 58% | 1016.8 hPa | 0 mm | - | 806 W/m² | - |
| 1778262467 | 17.78° C | 60% | 1016.8 hPa | 0 mm | - | 796 W/m² | - |
| 1778262164 | 18.33° C | 58% | 1016.9 hPa | 0 mm | - | 798 W/m² | - |
| 1778261860 | 17.78° C | 59% | 1016.8 hPa | 0 mm | - | 803 W/m² | - |
| 1778261556 | 18.33° C | 60% | 1017 hPa | 0 mm | - | 806 W/m² | - |
| 1778261253 | 17.78° C | 62% | 1017 hPa | 0 mm | - | 830 W/m² | - |
| 1778260950 | 18.33° C | 59% | 1017.1 hPa | 0 mm | - | 844 W/m² | - |
| 1778260647 | 17.78° C | 59% | 1017.3 hPa | 0 mm | - | 820 W/m² | - |
| 1778260342 | 18.33° C | 57% | 1017.3 hPa | 0 mm | - | 806 W/m² | - |
| 1778260040 | 18.33° C | 59% | 1017.2 hPa | 0 mm | - | 806 W/m² | - |
| 1778259738 | 18.33° C | 58% | 1017.3 hPa | 0 mm | - | 806 W/m² | - |
| 1778259434 | 18.33° C | 58% | 1017.3 hPa | 0 mm | - | 806 W/m² | - |
| 1778259131 | 17.78° C | 58% | 1017.4 hPa | 0 mm | - | 806 W/m² | - |
| 1778258828 | 17.78° C | 59% | 1017.2 hPa | 0 mm | - | 824 W/m² | - |
| 1778258524 | 18.33° C | 59% | 1017.4 hPa | 0 mm | - | 848 W/m² | - |
| 1778258223 | 17.78° C | 61% | 1017.5 hPa | 0 mm | - | 857 W/m² | - |
| 1778257919 | 17.78° C | 58% | 1017.3 hPa | 0 mm | - | 850 W/m² | - |
| 1778257615 | 17.78° C | 58% | 1017.5 hPa | 0 mm | - | 854 W/m² | - |
| 1778257312 | 16.67° C | 58% | 1017.4 hPa | 0 mm | - | 140 W/m² | - |
| 1778257009 | 16.67° C | 59% | 1017.7 hPa | 0 mm | - | 154 W/m² | - |
| 1778256707 | 17.78° C | 60% | 1017.5 hPa | 0 mm | - | 139 W/m² | - |
| 1778256405 | 17.78° C | 64% | 1017.5 hPa | 0 mm | - | 187 W/m² | - |
* Rain latest hour (hover to see other rain measurements)
** Current wind speed in m/s (hover to see current wind gust speed)